TimeCDT,TemperatureF,Dew PointF,Humidity,Sea Level PressureIn,VisibilityMPH,Wind Direction,Wind SpeedMPH,Gust SpeedMPH,PrecipitationIn,Events,Conditions,WindDirDegrees,DateUTC
12:53 AM,54.0,54.0,100,30.21,10.0,Calm,Calm,-,N/A,,Clear,0,2013-08-24 05:53:00
1:53 AM,53.1,52.0,96,30.20,10.0,Calm,Calm,-,N/A,,Clear,0,2013-08-24 06:53:00
2:53 AM,52.0,52.0,100,30.22,8.0,Calm,Calm,-,N/A,,Clear,0,2013-08-24 07:53:00
3:53 AM,52.0,51.1,97,30.22,9.0,Calm,Calm,-,N/A,,Clear,0,2013-08-24 08:53:00
4:27 AM,51.8,51.8,100,30.24,1.8,Calm,Calm,-,N/A,,Clear,0,2013-08-24 09:27:00
4:38 AM,50.0,50.0,100,30.24,4.0,Calm,Calm,-,N/A,,Clear,0,2013-08-24 09:38:00
4:53 AM,48.9,48.9,100,30.25,3.0,Calm,Calm,-,N/A,,Clear,0,2013-08-24 09:53:00
5:53 AM,51.1,51.1,100,30.25,9.0,Calm,Calm,-,N/A,,Clear,0,2013-08-24 10:53:00
6:15 AM,50.0,50.0,100,30.26,2.0,Calm,Calm,-,N/A,,Clear,0,2013-08-24 11:15:00
6:25 AM,50.0,50.0,100,30.26,8.0,Calm,Calm,-,N/A,,Clear,0,2013-08-24 11:25:00
6:53 AM,51.1,51.1,100,30.27,9.0,Calm,Calm,-,N/A,,Clear,0,2013-08-24 11:53:00
7:53 AM,61.0,60.1,97,30.27,10.0,Calm,Calm,-,N/A,,Clear,0,2013-08-24 12:53:00
8:53 AM,70.0,62.1,76,30.27,10.0,South,5.8,-,N/A,,Clear,190,2013-08-24 13:53:00
9:53 AM,73.9,60.1,62,30.27,10.0,South,10.4,-,N/A,,Clear,180,2013-08-24 14:53:00
10:53 AM,77.0,59.0,54,30.27,10.0,South,9.2,-,N/A,,Clear,180,2013-08-24 15:53:00
11:53 AM,79.0,55.0,44,30.26,10.0,SSW,15.0,-,N/A,,Clear,200,2013-08-24 16:53:00
12:53 PM,79.0,57.9,48,30.26,10.0,South,11.5,17.3,N/A,,Clear,170,2013-08-24 17:53:00
1:53 PM,80.1,59.0,48,30.25,10.0,SSE,8.1,16.1,N/A,,Clear,160,2013-08-24 18:53:00
2:53 PM,79.0,57.0,47,30.23,10.0,SSE,10.4,-,N/A,,Clear,150,2013-08-24 19:53:00
3:53 PM,79.0,57.0,47,30.21,10.0,South,12.7,18.4,N/A,,Clear,170,2013-08-24 20:53:00
4:53 PM,77.0,62.1,60,30.20,10.0,SSE,12.7,16.1,N/A,,Clear,160,2013-08-24 21:53:00
5:53 PM,73.9,63.0,68,30.20,10.0,South,12.7,-,N/A,,Clear,170,2013-08-24 22:53:00
6:53 PM,73.0,62.1,68,30.20,10.0,South,9.2,-,N/A,,Clear,170,2013-08-24 23:53:00
7:53 PM,70.0,62.1,76,30.19,10.0,North,-9999.0,-,N/A,,Clear,0,2013-08-25 00:53:00
8:53 PM,69.1,63.0,81,30.20,10.0,South,6.9,-,N/A,,Clear,170,2013-08-25 01:53:00
9:53 PM,66.9,62.1,84,30.20,10.0,South,5.8,-,N/A,,Clear,180,2013-08-25 02:53:00
10:53 PM,68.0,62.1,81,30.19,10.0,South,8.1,-,N/A,,Clear,180,2013-08-25 03:53:00
11:53 PM,69.1,62.1,78,30.18,10.0,South,9.2,-,N/A,,Clear,190,2013-08-25 04:53:00